TIANZHOU-7

Last updated on Sun Nov 17 2024 00:02:09 GMT+0000 (Coordinated Universal Time)

1 58811U 24013A 24321.19921897 .00055838 00000+0 64415-3 0 9992 2 58811 41.4693 235.9483 0011156 312.8207 157.6134 15.60978638202939
UTC large
Height (km)
Speed (km/s)
/
Latitude / Longitude
Inclination (degrees)
Orbital Period (minutes)
Azimuth
Elevation
Range (km)
Doppler Factor

Next 0 passes for location: London (51.5072 / 0.1276)

Sorry there are no passes over London.